Regional Weather Roundup
Issued by NWS

Home | Current Version | Previous Version | Graphics & Text | Print | Product List | Glossary On
Versions: 1 2 3 4 5 6 7 8 9 10 11 12 13 14 15 16 17 18 19 20 21 22 23 24 25 26 27
000
ASUS45 KBOU 201206
RWRCO

WEATHER ROUNDUP FOR COLORADO
NATIONAL WEATHER SERVICE DENVER/BOULDER CO
600 AM MDT SUN APR 20 2014

NOTE: "FAIR" INDICATES FEW OR NO CLOUDS BELOW 12000 FEET WITH NO
SIGNIFICANT WEATHER AND/OR OBSTRUCTIONS TO VISIBILITY.

COZ001>005-013-030-031-201300-
...NORTHWEST COLORADO...

CITY           SKY/WX    TMP DP  RH WIND       PRES   REMARKS
CRAIG          PTCLDY    31  29  92 CALM      30.14R
HAYDEN         CLEAR     37  32  81 E9        30.17R
MEEKER         CLOUDY    37  34  89 NE6       30.15R
MOUNT WERNER   PTCLDY    36  32  87 W7        30.28S
STEAMBOAT SPGS CLEAR     33  32  94 SE3       30.16S
WALDEN         CLEAR     32  28  86 SE3       30.18S
$$

COZ006>008-011-201300-
...WEST CENTRAL VALLEYS...

CITY           SKY/WX    TMP DP  RH WIND       PRES   REMARKS
GRAND JUNCTION CLEAR     40  38  93 E5        30.10R
MONTROSE       PTCLDY    42  37  82 SE9       30.14F
EAGLE          MOCLDY    37  36  93 CALM      30.19R
RIFLE          PTCLDY    40  34  79 CALM      30.14R
DELTA          PTCLDY    44  38  81 E3        30.13R
NUCLA            N/A     37  34  87 E7        30.17S
$$

COZ017>023-064>068-201300-
...SOUTHWEST COLORADO...

CITY           SKY/WX    TMP DP  RH WIND       PRES   REMARKS
DURANGO        PTCLDY    33  30  88 E3        30.12S
CORTEZ         CLEAR     36  32  85 NE9       30.13S
PAGOSA SPRINGS PTCLDY    33  32  94 CALM      30.17R THUNDER
TELLURIDE      CLOUDY    36  32  87 CALM      30.22S
WOLF CREEK PAS MOCLDY    30  27  86 NE3       30.28F
$$

COZ009-010-012-014-032>034-037-058>063-201300-
...CENTRAL COLORADO...

CITY           SKY/WX    TMP DP  RH WIND       PRES   REMARKS
ASPEN          CLOUDY    39  33  79 CALM      30.18S
BUENA VISTA    MOCLDY    35  32  87 W5        30.17S WCI  31
COPPER MTN     FOG       34  30  86 W20       30.30F VSB<1/4 WCI  22
BERTHOUD PASS  HAZE      27  18  69 N7G18     30.32R VSB<1/4 WCI  19
COTTONWOOD PAS MOCLDY    37  30  75 N3        30.21F
GUNNISON       MOCLDY    32  27  80 CALM      30.22R
KREMMLING      MOCLDY    34  32  93 CALM      30.21R
LEADVILLE      MOCLDY    30  28  92 NE8       30.22F WCI  22
MONARCH PASS   FOG       30  28  93 W15G22    30.38S VSB<1/4 WCI  19
SALIDA         MOCLDY    41  38  89 W5        30.23R
SUNLIGHT       PTCLDY    34  32  93 CALM      30.30R
WILKERSON PASS PTCLDY    30  28  93 NW9G16    30.28S WCI  22
$$

COZ069>075-201300-
...SAN LUIS VALLEY/SANGRE DE CRISTO MOUNTAINS...

CITY           SKY/WX    TMP DP  RH WIND       PRES   REMARKS
ALAMOSA        CLOUDY    42  39  89 SE3       30.13S
LA VETA PASS   LGT RAIN  34  34 100 SW3       30.21R
SAGUACHE       CLOUDY    43  34  70 NW18      30.14S
$$

COZ035-036-038>040-201300-
...NORTHERN COLORADO FRONT RANGE...

CITY           SKY/WX    TMP DP  RH WIND       PRES   REMARKS
DENVER INTL AP PTCLDY    46  39  76 SW12      30.03R
DMNS CITY PARK   N/A     47  39  74 S2        30.04R
AURORA         PTCLDY    45  37  76 S7        30.04R
FRONT RANGE AP NOT AVBL
ERIE MUNI ARPT PTCLDY    41  39  93 CALM      30.03R
BOULDER MUN AP PTCLDY    45  41  87 E3        30.03S
CENTENNIAL     MOCLDY    44  37  76 SW6       30.04S
BROOMFIELD     PTCLDY    46  39  76 N12       30.04R
FORT COLLINS   CLEAR     39  36  87 N7        30.04S
LONGMONT       CLEAR     40  38  92 SW5       30.05S
$$

COZ041-046-047-076>085-087-088-201300-
...PIKES PEAK/PALMER DIVIDE AND SOUTHERN FOOTHILLS...

CITY           SKY/WX    TMP DP  RH WIND       PRES   REMARKS
COLO. SPRINGS  CLOUDY    48  35  60 S5        30.05S
A. F. ACADEMY  MOCLDY    42  36  80 N5        30.06F
ELLICOTT       NOT AVBL
FALCON         CLOUDY    47  30  53 NW6       30.08S
FORT CARSON    CLOUDY    46  35  64 N3        30.03S
LIMON          CLOUDY    39  38  96 N6        30.03R
MONUMENT HILL  MOCLDY    41  32  70 SW7       30.08R
TRINIDAD       CLOUDY    50  43  77 N5        30.06R
$$

COZ042>045-048>051-090-091-201300-
...NORTHEAST COLORADO...

CITY           SKY/WX    TMP DP  RH WIND       PRES   REMARKS
GREELEY ARPT   CLEAR     39  32  75 N5        30.03R
AKRON          CLOUDY    46  41  82 CALM      30.02R
BURLINGTON     CLOUDY    45  43  93 N8        29.99S
WRAY           MOCLDY    41  41 100 CALM      30.01R
STERLING       CLOUDY    39  36  87 NW5       30.00S
HOLYOKE        MOCLDY    41  37  87 NW6       30.01S
FORT MORGAN    CLOUDY    40  38  94 N7        30.02S
$$

COZ086-089-092>099-201300-
...SOUTHEAST COLORADO...

CITY           SKY/WX    TMP DP  RH WIND       PRES   REMARKS
PUEBLO         CLOUDY    54  43  66 NW8       30.01R
LA JUNTA       CLOUDY    56  42  59 NW10      29.99R
LAMAR          CLOUDY    47  42  83 CALM      29.92R
SPRINGFIELD      N/A     51  46  83 SW9       29.98F
$$



USA.gov is the U.S. government's official web portal to all federal, state and local government web resources and services.